Weather History for Eveleth, MN

Change the Weather History Date:

Saturday, April 6, 2013

  Actual Average Record
Temperature  
Mean Temperature 30 °F -  
Max Temperature 33 °F 44 °F 76 °F (1991)
Min Temperature 26 °F 24 °F 5 °F (1990)
Degree Days  
Heating Degree Days 36    
Moisture  
Dew Point 29 °F    
Average Humidity 91    
Maximum Humidity 96    
Minimum Humidity 85    
Precipitation  
Precipitation 0.33 in - - ()
Sea Level Pressure  
Sea Level Pressure 29.73 in    
Wind  
Wind Speed 6 mph (East)    
Max Wind Speed 10 mph    
Max Gust Speed 16 mph    
Visibility 7 miles    
Events Snow    
Averages and records for this station are not official NWS values.
T = Trace of Precipitation, MM = Missing Value Source: NWS Daily Summary

Daily Weather History Graph

Daily Weather History Graph

Search for Another Location

Airport:

Trip Planner

Search our weather history database for the weather conditions in past years. The results will help you decide how hot, cold, wet, or windy it might be!

Date:

Astronomy

Apr. 06, 2013 Rise Set
Actual Time 6:38 AM CDT 7:47 PM CDT
Civil Twilight 6:06 AM CDT 8:18 PM CDT
Nautical Twilight 5:29 AM CDT 8:56 PM CDT
Astronomical Twilight 4:49 AM CDT 9:37 PM CDT
Moon 4:37 AM CDT (4/6) 4:03 PM CDT (4/6)
Length of Visible Light 14h 11m
Length of Day
13h 08m
Waning Crescent, 15% of the Moon is Illuminated
Apr 6
Waning Crescent
Apr 10
New
Apr 18
First Quarter
Apr 25
Full
May 2
Last Quarter

Hourly Weather History & Observations

Time (CDT) Temp. Windchill Dew Point Humidity Pressure Visibility Wind Dir Wind Speed Gust Speed Precip Events Conditions
12:10 AM 27.5 °F 20.2 °F 23.5 °F 85% 30.00 in 2.5 mi SE 6.9 mph - N/A Snow Light Snow
12:29 AM 26.2 °F 19.6 °F 23.2 °F 88% 29.99 in 2.0 mi ESE 5.8 mph - N/A Snow Light Snow
12:49 AM 26.2 °F 17.1 °F 23.4 °F 89% 29.98 in 5.0 mi ESE 9.2 mph - N/A Snow Light Snow
1:10 AM 26.2 °F 17.8 °F 23.4 °F 89% 29.97 in 3.0 mi East 8.1 mph - N/A Snow Light Snow
1:29 AM 26.2 °F 18.6 °F 23.2 °F 88% 29.96 in 5.0 mi East 6.9 mph - N/A Snow Light Snow
1:49 AM 26.2 °F 18.6 °F 23.2 °F 88% 29.95 in 10.0 mi East 6.9 mph - N/A Snow Light Snow
2:10 AM 26.2 °F 18.6 °F 23.4 °F 89% 29.93 in 7.0 mi East 6.9 mph - N/A Snow Light Snow
2:29 AM 27.1 °F 19.7 °F 24.4 °F 90% 29.92 in 7.0 mi East 6.9 mph - N/A Snow Light Snow
2:49 AM 27.5 °F 19.3 °F 24.8 °F 90% 29.91 in 10.0 mi East 8.1 mph - N/A Snow Light Snow
3:10 AM 27.5 °F 20.2 °F 24.8 °F 90% 29.88 in 10.0 mi East 6.9 mph - N/A Snow Light Snow
3:29 AM 27.5 °F 20.2 °F 24.8 °F 90% 29.88 in 10.0 mi East 6.9 mph - N/A Snow Light Snow
3:49 AM 28.8 °F 22.6 °F 26.1 °F 90% 29.86 in 10.0 mi East 5.8 mph - N/A Snow Light Snow
4:10 AM 30.0 °F 24.1 °F 27.5 °F 90% 29.84 in 7.0 mi East 5.8 mph - N/A Snow Light Snow
4:29 AM 30.0 °F 24.1 °F 27.5 °F 90% 29.83 in 7.0 mi East 5.8 mph - N/A Snow Light Snow
4:49 AM 30.0 °F 23.2 °F 27.5 °F 90% 29.82 in 10.0 mi East 6.9 mph - N/A Snow Light Snow
5:10 AM 30.2 °F 23.4 °F 27.7 °F 90% 29.82 in 10.0 mi ESE 6.9 mph - N/A   Overcast
5:29 AM 32.2 °F 27.7 °F 29.8 °F 91% 29.82 in 10.0 mi ESE 4.6 mph - N/A   Overcast
5:49 AM 32.2 °F 27.7 °F 29.8 °F 91% 29.81 in 10.0 mi ESE 4.6 mph - N/A   Overcast
6:10 AM 32.2 °F 25.8 °F 29.8 °F 91% 29.80 in 10.0 mi ESE 6.9 mph - N/A   Overcast
6:29 AM 32.2 °F 26.7 °F 29.7 °F 90% 29.79 in 10.0 mi ESE 5.8 mph - 0.01 in   Overcast
6:49 AM 32.2 °F 25.8 °F 29.7 °F 90% 29.79 in 10.0 mi ESE 6.9 mph - 0.01 in   Overcast
7:10 AM 32.2 °F 27.7 °F 29.7 °F 90% 29.78 in 10.0 mi ESE 4.6 mph - 0.01 in   Overcast
7:29 AM 32.2 °F 26.7 °F 29.7 °F 90% 29.77 in 10.0 mi ESE 5.8 mph - 0.01 in   Overcast
7:50 AM 32.2 °F 25.8 °F 29.3 °F 89% 29.76 in 10.0 mi ESE 6.9 mph - 0.01 in   Overcast
8:09 AM 32.2 °F 23.8 °F 29.1 °F 88% 29.75 in 10.0 mi ESE 10.4 mph - N/A   Overcast
8:29 AM 32.2 °F 24.4 °F 28.9 °F 88% 29.74 in 10.0 mi ESE 9.2 mph - N/A   Overcast
8:49 AM 32.2 °F 24.4 °F 28.8 °F 87% 29.73 in 10.0 mi ESE 9.2 mph - N/A   Overcast
9:09 AM 32.4 °F 26.0 °F 29.1 °F 88% 29.73 in 10.0 mi SE 6.9 mph - N/A   Overcast
9:29 AM 32.2 °F 25.8 °F 28.9 °F 88% 29.72 in 10.0 mi SE 6.9 mph - N/A   Overcast
9:49 AM 32.2 °F 25.8 °F 29.3 °F 89% 29.71 in 1.2 mi ESE 6.9 mph - N/A Snow Light Snow
10:10 AM 32.2 °F 27.7 °F 30.2 °F 92% 29.70 in 1.2 mi ESE 4.6 mph - N/A Snow Light Snow
10:29 AM 32.2 °F - 30.7 °F 94% 29.70 in 0.5 mi Calm Calm - 0.02 in Snow Snow
10:49 AM 32.2 °F 27.7 °F 30.9 °F 95% 29.69 in 0.5 mi ESE 4.6 mph - 0.03 in Snow Snow
11:09 AM 32.2 °F 28.9 °F 31.1 °F 96% 29.68 in 0.2 mi East 3.5 mph - 0.01 in Snow Snow
11:29 AM 32.2 °F 26.7 °F 31.1 °F 96% 29.67 in 1.0 mi ESE 5.8 mph - 0.04 in Snow Light Snow
11:50 AM 32.2 °F 26.7 °F 30.7 °F 94% 29.66 in 2.0 mi ESE 5.8 mph - 0.07 in Snow Light Snow
12:09 PM 32.2 °F 27.7 °F 30.7 °F 94% 29.66 in 2.5 mi ESE 4.6 mph - 0.01 in Snow Light Snow
12:29 PM 32.2 °F 27.7 °F 30.6 °F 94% 29.65 in 4.0 mi ESE 4.6 mph - 0.03 in Snow Light Snow
12:50 PM 32.2 °F 28.9 °F 30.2 °F 92% 29.65 in 2.5 mi SE 3.5 mph - 0.04 in Snow Light Snow
1:09 PM 32.2 °F 28.9 °F 30.6 °F 94% 29.64 in 1.5 mi East 3.5 mph - N/A Snow Light Snow
1:29 PM 32.2 °F - 30.6 °F 94% 29.64 in 1.8 mi Calm Calm - N/A Snow Light Snow
1:50 PM 32.2 °F 28.9 °F 30.6 °F 94% 29.63 in 4.0 mi East 3.5 mph - 0.03 in Snow Light Snow
2:09 PM 32.2 °F 28.9 °F 30.6 °F 94% 29.62 in 4.0 mi East 3.5 mph - 0.02 in Snow Light Snow
2:29 PM 32.2 °F - 30.4 °F 93% 29.62 in 2.5 mi Calm Calm - 0.04 in Snow Light Snow
2:50 PM 32.2 °F 27.7 °F 30.6 °F 94% 29.62 in 1.0 mi ESE 4.6 mph - 0.07 in Snow Light Snow
3:09 PM 32.2 °F 28.9 °F 30.6 °F 94% 29.62 in 1.2 mi ENE 3.5 mph - 0.01 in   Overcast
3:29 PM 32.2 °F 28.9 °F 30.6 °F 94% 29.62 in 1.2 mi East 3.5 mph - 0.03 in Snow Light Snow
3:50 PM 32.2 °F - 30.6 °F 94% 29.62 in 2.5 mi Calm Calm - 0.05 in Snow Light Snow
4:09 PM 32.2 °F - 30.6 °F 94% 29.62 in 3.0 mi Calm Calm - 0.01 in Snow Light Snow
4:29 PM 32.2 °F - 30.2 °F 92% 29.62 in 3.0 mi Calm Calm - 0.01 in Snow Light Snow
4:50 PM 32.2 °F - 30.0 °F 92% 29.62 in 2.5 mi Calm Calm - 0.02 in Snow Light Snow
5:09 PM 32.2 °F - 30.2 °F 92% 29.62 in 5.0 mi Calm Calm - N/A Snow Light Snow
5:29 PM 32.2 °F - 30.2 °F 92% 29.62 in 4.0 mi Calm Calm - N/A Snow Light Snow
5:50 PM 32.2 °F - 30.2 °F 92% 29.63 in 4.0 mi Calm Calm - N/A Snow Light Snow
6:09 PM 32.2 °F - 30.2 °F 92% 29.63 in 10.0 mi Calm Calm - N/A   Overcast
6:29 PM 32.2 °F - 30.2 °F 92% 29.64 in 10.0 mi Calm Calm - N/A   Overcast
6:49 PM 32.9 °F 28.5 °F 31.1 °F 93% 29.64 in 10.0 mi NW 4.6 mph - N/A   Overcast
7:09 PM 33.8 °F 30.8 °F 31.3 °F 90% 29.64 in 10.0 mi NNW 3.5 mph - N/A   Overcast
7:30 PM 33.3 °F 28.9 °F 31.1 °F 92% 29.65 in 10.0 mi NNW 4.6 mph - N/A   Overcast
7:49 PM 32.9 °F 28.5 °F 30.7 °F 92% 29.65 in 10.0 mi NNW 4.6 mph - N/A   Overcast
8:09 PM 32.9 °F - 30.7 °F 92% 29.65 in 10.0 mi Calm Calm - N/A   Overcast
8:30 PM 32.9 °F 28.5 °F 30.9 °F 92% 29.66 in 10.0 mi NNW 4.6 mph - N/A   Overcast
8:49 PM 32.9 °F 27.5 °F 30.9 °F 92% 29.66 in 10.0 mi NNW 5.8 mph - N/A   Overcast
9:09 PM 33.3 °F 28.9 °F 31.5 °F 93% 29.66 in 10.0 mi NNW 4.6 mph - N/A   Overcast
9:30 PM 33.3 °F 27.9 °F 31.6 °F 94% 29.67 in 10.0 mi NNW 5.8 mph - N/A   Overcast
9:49 PM 33.8 °F 28.6 °F 31.6 °F 92% 29.67 in 10.0 mi NNW 5.8 mph - N/A   Overcast
10:09 PM 33.8 °F 26.4 °F 31.6 °F 92% 29.67 in 10.0 mi NNW 9.2 mph 16.1 mph N/A   Overcast
10:30 PM 33.8 °F 27.0 °F 31.5 °F 91% 29.68 in 7.0 mi NNW 8.1 mph - N/A   Overcast
10:50 PM 33.8 °F 27.7 °F 31.1 °F 90% 29.68 in 7.0 mi NNW 6.9 mph - N/A   Overcast
11:09 PM 33.8 °F 25.8 °F 31.1 °F 90% 29.68 in 10.0 mi NNW 10.4 mph - N/A   Overcast
11:30 PM 33.8 °F 27.0 °F 31.1 °F 90% 29.68 in 10.0 mi NNW 8.1 mph 16.1 mph N/A   Overcast
11:50 PM 33.1 °F 26.1 °F 30.7 °F 91% 29.68 in 10.0 mi NNW 8.1 mph - N/A   Overcast